"startDT [UTC]","vpos","CH4 [ppm]","stdev(CH4) [ppm]","CO2 [ppm]","stdev(CO2) [ppm]","H2O [ppm]","stdev(H2O)","p_LGR [torr]","T_LGR [C]","mt1_LGR [us]","mt2_LGR [us]","T_ECpre [C]","T_EC1 [C]","T_EC2 [C]","p_inlet [hPa]","p_in [hPa]","p_out [hPa]","T_inlet [C]","RH_inlet [%]","dwpt_inlet [C]","T_vent [C]","RH_vent [%]","dwpt_vent [C]","flow_vent [l min-1]","flow_inlet [l min-1]","dwpt_sample [C]","T_room [C]"
2012-05-12 00:00:00,0.0,1.8932,0.0010,404.40,0.43,59.3,36.6,138.21,23.79,24.58,36.31,0.04,-272.73,-272.73,-50,550,-922,18.7,12.8,-10.4,18.9,13.2,-9.9,5.73,2.48,-26.2,24.3
2012-05-12 00:01:00,0.0,1.8926,0.0012,404.38,0.36,56.7,41.8,138.21,23.79,24.59,36.31,0.04,-272.73,-272.73,-50,550,-922,18.7,12.8,-10.5,19.0,13.2,-9.9,5.73,2.39,-26.2,24.4
2012-05-12 00:02:00,0.0,1.8926,0.0009,404.38,0.41,58.3,42.0,138.21,23.79,24.58,36.31,0.04,-272.74,-272.73,-50,550,-922,18.7,12.9,-10.4,19.0,13.3,-9.8,5.73,2.32,-26.2,24.3
2012-05-12 00:03:00,0.0,1.8923,0.0012,404.29,0.40,68.2,46.2,138.21,23.79,24.59,36.31,0.04,-272.73,-272.73,-50,550,-922,18.7,12.9,-10.4,19.0,13.2,-9.8,5.73,2.44,-26.2,24.3
2012-05-12 00:04:00,0.0,1.8939,0.0013,404.38,0.42,72.0,44.8,138.21,23.80,24.58,36.31,0.04,-272.73,-272.73,-50,550,-922,18.7,12.9,-10.4,19.0,13.2,-9.8,5.73,2.45,-26.2,24.4
2012-05-12 00:05:00,0.0,1.8937,0.0011,404.41,0.42,69.9,38.9,138.21,23.80,24.59,36.31,0.04,-272.73,-272.74,-50,550,-922,18.7,12.9,-10.4,19.0,13.2,-9.8,5.73,2.32,-26.2,24.3
2012-05-12 00:06:00,0.0,1.8928,0.0010,404.47,0.38,60.0,45.4,138.21,23.80,24.59,36.31,0.04,-272.73,-272.73,-50,550,-922,18.7,12.8,-10.4,19.0,13.2,-9.9,5.73,2.37,-26.2,24.4
2012-05-12 00:07:00,0.0,1.8931,0.0009,404.38,0.43,63.8,47.4,138.21,23.80,24.58,36.32,0.04,-272.73,-272.73,-50,550,-922,18.7,12.6,-10.6,19.0,13.0,-10.1,5.73,2.48,-26.2,24.4
2012-05-12 00:08:00,0.0,1.8941,0.0009,404.36,0.41,84.1,50.1,138.21,23.81,24.59,36.31,0.04,-272.73,-272.73,-50,550,-922,18.7,12.6,-10.7,19.0,12.9,-10.1,5.73,2.38,-26.2,24.4
2012-05-12 00:09:00,0.0,1.8941,0.0011,404.40,0.38,78.9,41.9,138.21,23.81,24.59,36.31,0.04,-272.73,-272.73,-50,550,-922,18.7,12.6,-10.6,19.0,13.0,-10.1,5.73,2.32,-26.2,24.4
2012-05-12 00:10:00,0.0,1.8935,0.0011,404.33,0.37,56.9,42.5,138.21,23.82,24.59,36.31,0.04,-272.73,-272.73,-50,550,-922,18.7,12.7,-10.6,19.0,13.0,-10.0,5.73,2.45,-26.2,24.4
2012-05-12 00:11:00,0.0,1.8937,0.0011,404.40,0.37,78.8,44.0,138.21,23.82,24.58,36.31,0.04,-272.73,-272.73,-50,550,-922,18.7,12.7,-10.6,19.0,13.0,-10.0,5.73,2.44,-26.2,24.3
2012-05-12 00:12:00,0.0,1.8933,0.0012,404.43,0.39,68.0,50.7,138.21,23.83,24.59,36.32,0.04,-272.74,-272.74,-50,550,-922,18.7,12.7,-10.6,19.0,13.0,-10.0,5.73,2.31,-26.2,24.3
2012-05-12 00:13:00,0.0,1.8932,0.0010,404.42,0.47,65.7,40.8,138.21,23.83,24.58,36.31,0.04,-272.74,-272.73,-50,550,-922,18.7,12.6,-10.7,19.0,12.9,-10.1,5.73,2.39,-26.2,24.3
2012-05-12 00:14:00,0.0,1.8931,0.0011,404.51,0.39,62.7,44.2,138.21,23.83,24.58,36.31,0.04,-272.73,-272.73,-51,551,-922,18.7,12.5,-10.7,19.0,12.9,-10.2,5.73,2.47,-26.2,24.3
2012-05-12 00:15:00,0.0,1.8930,0.0010,404.45,0.40,58.8,49.8,138.21,23.84,24.59,36.30,0.04,-272.73,-272.73,-50,550,-922,18.7,12.6,-10.7,19.0,12.9,-10.1,5.73,2.36,-26.2,24.4
2012-05-12 00:16:00,0.0,1.8939,0.0012,404.33,0.43,66.2,47.4,138.21,23.84,24.59,36.31,0.04,-272.73,-272.73,-50,551,-922,18.8,12.6,-10.7,19.0,12.9,-10.1,5.73,2.33,-26.2,24.3
2012-05-12 00:17:00,0.0,1.8942,0.0009,404.46,0.36,75.3,43.4,138.21,23.85,24.59,36.30,0.04,-272.73,-272.73,-51,550,-922,18.7,12.5,-10.8,19.0,12.8,-10.2,5.73,2.46,-26.2,24.4
2012-05-12 00:18:00,0.0,1.8945,0.0011,404.51,0.38,86.7,50.5,138.21,23.85,24.59,36.31,0.04,-272.73,-272.73,-50,550,-922,18.7,12.5,-10.7,19.0,12.9,-10.1,5.73,2.43,-26.1,24.4
2012-05-12 00:19:00,0.0,1.8951,0.0010,404.43,0.42,80.4,44.0,138.21,23.86,24.58,36.31,0.04,-272.73,-272.73,-50,551,-923,18.8,12.6,-10.6,19.0,13.0,-10.1,5.73,2.32,-26.1,24.4
2012-05-12 00:20:00,0.0,1.8951,0.0013,404.57,0.45,90.7,48.7,138.21,23.87,24.58,36.31,0.04,-272.73,-272.73,-51,550,-922,18.8,12.6,-10.7,19.0,12.9,-10.1,5.73,2.40,-26.2,24.4
2012-05-12 00:21:00,0.0,1.8947,0.0010,404.45,0.41,81.1,43.3,138.21,23.87,24.59,36.31,0.04,-272.73,-272.73,-50,551,-922,18.8,12.6,-10.6,19.0,12.9,-10.1,5.73,2.47,-26.1,24.4
2012-05-12 00:22:00,0.0,1.8946,0.0010,404.36,0.42,68.2,48.4,138.21,23.88,24.59,36.31,0.04,-272.73,-272.74,-50,550,-922,18.8,12.5,-10.7,19.0,12.9,-10.1,5.73,2.35,-26.1,24.5
2012-05-12 00:23:00,0.0,1.8943,0.0010,404.49,0.44,67.4,39.9,138.21,23.88,24.58,36.31,0.04,-272.73,-272.73,-50,551,-922,18.8,12.5,-10.7,19.0,12.8,-10.2,5.73,2.34,-26.1,24.5
2012-05-12 00:24:00,0.0,1.8937,0.0011,404.44,0.41,70.7,41.7,138.21,23.88,24.59,36.31,0.04,-272.73,-272.73,-50,551,-922,18.8,12.6,-10.6,19.0,13.0,-10.1,5.73,2.46,-26.1,24.5
2012-05-12 00:25:00,0.0,1.8935,0.0011,404.44,0.45,65.3,44.9,138.21,23.89,24.58,36.31,0.04,-272.74,-272.74,-50,551,-922,18.8,12.5,-10.7,19.0,12.9,-10.1,5.73,2.43,-26.1,24.5
2012-05-12 00:26:00,0.0,1.8935,0.0011,404.44,0.31,60.6,37.1,138.21,23.89,24.59,36.31,0.04,-272.73,-272.73,-50,551,-923,18.8,12.4,-10.8,19.1,12.8,-10.2,5.73,2.32,-26.1,24.5
2012-05-12 00:27:00,0.0,1.8946,0.0010,404.60,0.34,75.0,45.3,138.21,23.89,24.58,36.30,0.04,-272.73,-272.73,-50,551,-922,18.8,12.4,-10.8,19.1,12.8,-10.2,5.73,2.39,-26.1,24.5
2012-05-12 00:28:00,0.0,1.8951,0.0011,404.45,0.43,73.6,43.8,138.21,23.90,24.58,36.31,0.04,-272.73,-272.73,-50,551,-923,18.8,12.5,-10.7,19.1,12.9,-10.1,5.73,2.48,-26.1,24.5
2012-05-12 00:29:00,0.0,1.8952,0.0011,404.45,0.42,67.6,44.8,138.21,23.90,24.58,36.31,0.04,-272.74,-272.73,-51,550,-922,18.8,12.6,-10.6,19.1,13.0,-10.0,5.73,2.36,-26.1,24.5
2012-05-12 00:30:00,0.0,1.8953,0.0009,404.46,0.41,95.4,46.0,138.21,23.91,24.58,36.31,0.04,-272.74,-272.73,-50,551,-922,18.8,12.6,-10.6,19.1,13.0,-10.0,5.73,2.33,-26.1,24.5
2012-05-12 00:31:00,0.0,1.8952,0.0011,404.41,0.39,84.7,44.1,138.21,23.91,24.58,36.31,0.04,-272.73,-272.73,-50,550,-923,18.8,12.6,-10.6,19.1,13.0,-10.0,5.73,2.45,-26.1,24.6
2012-05-12 00:32:00,0.0,1.8958,0.0012,404.43,0.37,93.3,46.9,138.20,23.92,24.58,36.30,0.04,-272.73,-272.74,-50,551,-922,18.8,12.6,-10.6,19.1,13.0,-10.0,5.73,2.45,-26.1,24.5
2012-05-12 00:33:00,0.0,1.8952,0.0012,404.47,0.41,93.0,46.8,138.20,23.93,24.59,36.31,0.04,-272.73,-272.73,-50,551,-923,18.8,12.6,-10.6,19.1,13.0,-10.0,5.73,2.33,-26.1,24.6
2012-05-12 00:34:00,0.0,1.8949,0.0010,404.50,0.42,78.8,45.2,138.21,23.93,24.59,36.30,0.04,-272.73,-272.73,-50,551,-922,18.8,12.7,-10.5,19.1,13.1,-9.9,5.73,2.37,-26.1,24.5
2012-05-12 00:35:00,0.0,1.8950,0.0012,404.52,0.44,86.9,40.1,138.20,23.94,24.58,36.30,0.04,-272.74,-272.73,-50,551,-923,18.8,12.7,-10.4,19.1,13.1,-9.9,5.73,2.47,-26.1,24.5
2012-05-12 00:36:00,0.0,1.8950,0.0011,404.56,0.37,81.6,54.0,138.20,23.95,24.58,36.30,0.04,-272.74,-272.73,-50,551,-922,18.8,12.7,-10.4,19.1,13.1,-9.8,5.73,2.38,-26.1,24.6
2012-05-12 00:37:00,0.0,1.8942,0.0009,404.43,0.39,78.5,42.2,138.21,23.95,24.58,36.31,0.04,-272.73,-272.73,-51,551,-923,18.9,12.7,-10.4,19.1,13.1,-9.9,5.73,2.32,-26.1,24.5
2012-05-12 00:38:00,0.0,1.8944,0.0009,404.40,0.37,73.0,42.8,138.20,23.95,24.58,36.31,0.04,-272.73,-272.73,-50,551,-922,18.8,12.8,-10.3,19.1,13.2,-9.8,5.73,2.43,-26.1,24.6
2012-05-12 00:39:00,0.0,1.8939,0.0011,404.54,0.40,79.9,41.5,138.20,23.95,24.58,36.31,0.04,-272.73,-272.74,-50,551,-922,18.9,12.8,-10.3,19.1,13.2,-9.8,5.73,2.45,-26.1,24.6
2012-05-12 00:40:00,0.0,1.8949,0.0010,404.48,0.36,86.8,46.9,138.20,23.96,24.58,36.31,0.04,-272.73,-272.73,-51,551,-923,18.9,12.7,-10.4,19.2,13.1,-9.9,5.73,2.34,-26.0,24.6
2012-05-12 00:41:00,0.0,1.8948,0.0010,404.51,0.47,86.6,38.0,138.20,23.96,24.59,36.30,0.04,-272.73,-272.73,-51,551,-922,18.9,12.7,-10.5,19.2,13.0,-9.9,5.73,2.35,-26.0,24.6
2012-05-12 00:42:00,0.0,1.8950,0.0010,404.47,0.33,88.8,45.1,138.20,23.97,24.58,36.31,0.04,-272.74,-272.73,-50,551,-923,18.9,12.6,-10.5,19.2,13.0,-9.9,5.73,2.46,-26.0,24.6
2012-05-12 00:43:00,0.0,1.8950,0.0009,404.48,0.41,104.2,37.0,138.20,23.97,24.59,36.30,0.04,-272.74,-272.73,-51,551,-922,18.9,12.8,-10.4,19.2,13.1,-9.8,5.73,2.42,-26.0,24.6
2012-05-12 00:44:00,0.0,1.8956,0.0010,404.44,0.39,101.8,38.9,138.20,23.98,24.58,36.30,0.04,-272.73,-272.73,-51,551,-923,18.9,12.9,-10.2,19.2,13.3,-9.6,5.73,2.32,-26.0,24.6
2012-05-12 00:45:00,0.0,1.8951,0.0011,404.52,0.46,92.7,44.9,138.20,23.99,24.58,36.31,0.04,-272.73,-272.73,-50,551,-922,18.9,12.9,-10.2,19.2,13.3,-9.6,5.73,2.39,-26.0,24.7
2012-05-12 00:46:00,0.0,1.8955,0.0009,404.46,0.37,84.3,39.7,138.20,23.99,24.58,36.30,0.04,-272.73,-272.74,-51,551,-923,18.9,12.9,-10.2,19.2,13.3,-9.6,5.73,2.47,-26.0,24.7
2012-05-12 00:47:00,0.0,1.8950,0.0011,404.40,0.37,92.5,45.1,138.20,24.00,24.58,36.31,0.04,-272.73,-272.73,-51,551,-923,18.9,12.9,-10.2,19.2,13.3,-9.6,5.73,2.38,-26.0,24.7
2012-05-12 00:48:00,0.0,1.8946,0.0011,404.44,0.44,81.6,43.3,138.20,24.00,24.58,36.31,0.04,-272.73,-272.73,-50,552,-922,18.9,12.9,-10.2,19.2,13.2,-9.7,5.73,2.32,-26.0,24.6
2012-05-12 00:49:00,0.0,1.8946,0.0011,404.61,0.53,86.2,49.4,138.20,24.01,24.58,36.30,0.04,-272.73,-272.73,-51,552,-923,18.9,12.9,-10.2,19.2,13.2,-9.7,5.73,2.42,-26.0,24.6
2012-05-12 00:50:00,0.0,1.8944,0.0012,404.44,0.34,83.9,48.8,138.20,24.01,24.58,36.31,0.04,-272.73,-272.73,-51,551,-922,18.9,13.0,-10.1,19.2,13.3,-9.6,5.73,2.45,-26.0,24.6
2012-05-12 00:51:00,0.0,1.8942,0.0010,404.41,0.40,70.2,46.0,138.20,24.02,24.58,36.31,0.04,-272.73,-272.73,-50,552,-923,18.9,13.0,-10.1,19.2,13.4,-9.5,5.73,2.34,-26.0,24.7
2012-05-12 00:52:00,0.0,1.8945,0.0012,404.44,0.43,85.9,48.7,138.20,24.02,24.58,36.31,0.04,-272.73,-272.74,-51,551,-923,18.9,13.0,-10.1,19.2,13.3,-9.5,5.73,2.35,-26.0,24.7
2012-05-12 00:53:00,0.0,1.8949,0.0010,404.45,0.46,100.4,47.4,138.20,24.02,24.58,36.31,0.04,-272.74,-272.74,-51,552,-922,18.9,13.1,-10.0,19.2,13.5,-9.4,5.73,2.46,-26.0,24.7
2012-05-12 00:54:00,0.0,1.8950,0.0010,404.44,0.42,106.5,42.7,138.20,24.03,24.58,36.31,0.04,-272.73,-272.73,-50,552,-923,18.9,13.0,-10.0,19.2,13.4,-9.5,5.73,2.42,-26.0,24.7
2012-05-12 00:55:00,0.0,1.8952,0.0011,404.56,0.38,98.4,40.2,138.20,24.04,24.58,36.30,0.04,-272.73,-272.74,-51,552,-923,18.9,12.8,-10.3,19.2,13.2,-9.7,5.73,2.32,-26.0,24.8
2012-05-12 00:56:00,0.0,1.8950,0.0012,404.59,0.45,93.0,52.1,138.20,24.04,24.59,36.30,0.04,-272.73,-272.74,-51,552,-923,18.9,12.7,-10.4,19.3,13.0,-9.8,5.73,2.39,-26.0,24.8
2012-05-12 00:57:00,0.0,1.8952,0.0010,404.44,0.39,104.8,50.1,138.20,24.05,24.59,36.31,0.04,-272.73,-272.73,-50,552,-922,19.0,12.5,-10.5,19.2,12.9,-10.0,5.73,2.47,-26.0,24.7
2012-05-12 00:58:00,0.0,1.8954,0.0008,404.43,0.44,108.3,50.4,138.20,24.05,24.58,36.30,0.04,-272.73,-272.73,-51,552,-923,19.0,12.7,-10.3,19.3,13.0,-9.8,5.73,2.37,-25.9,24.8
2012-05-12 00:59:00,0.0,1.8955,0.0010,404.46,0.41,101.6,47.3,138.20,24.06,24.58,36.31,0.04,-272.74,-272.74,-51,552,-923,19.0,12.9,-10.1,19.3,13.3,-9.6,5.73,2.32,-25.6,24.8
2012-05-12 01:00:00,0.0,1.8952,0.0010,404.39,0.45,95.2,45.6,138.20,24.07,24.59,36.31,0.04,-272.73,-272.73,-50,552,-923,19.0,12.8,-10.2,19.3,13.2,-9.7,5.73,2.42,-25.6,24.8
2012-05-12 01:01:00,0.0,1.8962,0.0009,404.36,0.42,124.7,45.3,138.20,24.07,24.58,36.31,0.04,-272.73,-272.73,-51,552,-923,19.0,13.0,-10.1,19.3,13.3,-9.5,5.73,2.46,-25.6,24.8
2012-05-12 01:02:00,0.0,1.8954,0.0010,404.41,0.48,117.4,43.7,138.20,24.08,24.59,36.31,0.04,-272.74,-272.74,-51,552,-923,19.0,13.1,-9.9,19.3,13.5,-9.4,5.73,2.34,-25.6,24.8
2012-05-12 01:03:00,0.0,1.8955,0.0010,404.53,0.47,97.8,44.4,138.20,24.09,24.58,36.30,0.04,-272.73,-272.74,-50,552,-923,19.0,13.0,-10.0,19.3,13.3,-9.5,5.73,2.34,-25.6,24.8
2012-05-12 01:04:00,0.0,1.8959,0.0009,404.48,0.40,122.0,40.3,138.20,24.10,24.58,36.30,0.04,-272.73,-272.73,-51,552,-923,19.0,12.9,-10.1,19.3,13.2,-9.6,5.73,2.45,-25.6,24.8
2012-05-12 01:05:00,0.0,1.8958,0.0011,404.52,0.45,115.2,42.2,138.20,24.11,24.58,36.30,0.04,-272.73,-272.73,-51,552,-923,19.1,12.7,-10.3,19.3,13.0,-9.8,5.73,2.43,-25.6,24.8
2012-05-12 01:06:00,0.0,1.8961,0.0012,404.43,0.39,117.5,43.7,138.20,24.11,24.58,36.31,0.04,-272.73,-272.73,-50,552,-923,19.1,12.7,-10.3,19.3,13.0,-9.8,5.73,2.32,-25.6,24.8
2012-05-12 01:07:00,0.0,1.8961,0.0011,404.47,0.44,120.1,45.2,138.20,24.12,24.58,36.31,0.04,-272.73,-272.74,-51,553,-923,19.1,12.6,-10.4,19.3,12.9,-9.8,5.73,2.37,-25.6,24.8
2012-05-12 01:08:00,0.0,1.8957,0.0012,404.42,0.48,132.3,46.7,138.20,24.13,24.59,36.31,0.04,-272.73,-272.73,-51,552,-923,19.1,12.7,-10.3,19.3,13.0,-9.8,5.73,2.47,-25.6,24.8
2012-05-12 01:09:00,0.0,1.8959,0.0010,404.30,0.40,109.0,33.8,138.20,24.13,24.58,36.31,0.04,-272.73,-272.73,-51,552,-923,19.1,12.7,-10.3,19.3,13.0,-9.8,5.73,2.40,-25.6,24.9
2012-05-12 01:10:00,0.0,1.8956,0.0011,404.50,0.47,127.4,45.4,138.20,24.14,24.59,36.31,0.04,-272.73,-272.73,-51,552,-923,19.1,12.6,-10.4,19.3,12.9,-9.9,5.73,2.31,-25.6,24.9
2012-05-12 01:11:00,0.0,1.8959,0.0009,404.52,0.42,124.5,41.7,138.20,24.15,24.58,36.31,0.04,-272.73,-272.73,-51,553,-923,19.1,12.7,-10.3,19.4,13.0,-9.8,5.73,2.41,-25.6,24.9
2012-05-12 01:12:00,0.0,1.8954,0.0010,404.46,0.44,136.4,40.5,138.20,24.16,24.58,36.31,0.04,-272.73,-272.73,-51,552,-923,19.1,12.6,-10.4,19.4,12.9,-9.8,5.73,2.46,-25.5,24.9
2012-05-12 01:13:00,0.0,1.8952,0.0008,404.41,0.43,124.7,40.8,138.20,24.16,24.58,36.30,0.04,-272.74,-272.74,-51,552,-923,19.1,12.7,-10.3,19.4,13.0,-9.7,5.73,2.36,-25.5,24.9
2012-05-12 01:14:00,0.0,1.8952,0.0011,404.46,0.41,116.0,35.3,138.20,24.17,24.59,36.30,0.04,-272.73,-272.73,-51,552,-923,19.1,12.6,-10.4,19.4,12.9,-9.8,5.73,2.33,-25.5,24.9
2012-05-12 01:15:00,0.0,1.8954,0.0010,404.46,0.34,115.0,49.0,138.20,24.18,24.58,36.29,0.04,-272.73,-272.73,-51,552,-923,19.1,12.8,-10.2,19.4,13.1,-9.6,5.73,2.45,-25.5,24.9
2012-05-12 01:16:00,0.0,1.8950,0.0009,404.50,0.39,107.7,42.4,138.20,24.18,24.59,36.30,0.04,-272.74,-272.74,-51,553,-923,19.1,12.8,-10.2,19.4,13.1,-9.6,5.73,2.44,-25.5,24.9
2012-05-12 01:17:00,0.0,1.8953,0.0012,404.40,0.42,108.7,35.9,138.20,24.19,24.58,36.30,0.04,-272.73,-272.74,-51,552,-923,19.1,12.6,-10.4,19.4,12.9,-9.8,5.73,2.32,-25.5,24.9
2012-05-12 01:18:00,0.0,1.8953,0.0012,404.35,0.39,108.4,46.6,138.20,24.19,24.58,36.31,0.04,-272.73,-272.73,-50,553,-923,19.1,12.5,-10.4,19.4,12.8,-9.9,5.73,2.38,-25.5,24.9
2012-05-12 01:19:00,0.0,1.8951,0.0010,404.51,0.41,117.0,43.6,138.20,24.20,24.58,36.30,0.04,-272.73,-272.73,-51,553,-923,19.2,12.4,-10.5,19.4,12.8,-9.9,5.73,2.46,-25.5,25.0
2012-05-12 01:20:00,0.0,1.8953,0.0010,404.28,0.38,134.0,45.2,138.20,24.21,24.58,36.31,0.04,-272.73,-272.73,-51,553,-923,19.2,12.4,-10.5,19.4,12.8,-9.9,5.73,2.38,-25.5,25.0
2012-05-12 01:21:00,0.0,1.8952,0.0010,404.34,0.37,122.5,39.2,138.20,24.21,24.58,36.31,0.04,-272.73,-272.73,-51,552,-923,19.2,12.3,-10.6,19.4,12.7,-10.0,5.73,2.32,-25.5,25.0
2012-05-12 01:22:00,0.0,1.8949,0.0008,404.41,0.35,112.6,38.0,138.20,24.22,24.58,36.30,0.04,-272.73,-272.73,-51,553,-923,19.2,12.3,-10.6,19.5,12.7,-10.0,5.73,2.42,-25.5,24.9
2012-05-12 01:23:00,0.0,1.8949,0.0008,404.34,0.44,119.0,39.6,138.20,24.22,24.59,36.31,0.04,-272.74,-272.74,-51,553,-924,19.2,12.3,-10.5,19.5,12.7,-10.0,5.73,2.45,-25.5,25.0
2012-05-12 01:24:00,0.0,1.8947,0.0011,404.38,0.43,111.3,48.7,138.20,24.23,24.58,36.31,0.04,-272.73,-272.73,-51,553,-923,19.2,12.3,-10.5,19.5,12.7,-10.0,5.73,2.33,-25.5,25.0
2012-05-12 01:25:00,0.0,1.8949,0.0011,404.26,0.40,115.4,41.2,138.20,24.23,24.58,36.31,0.04,-272.73,-272.73,-51,553,-923,19.2,12.3,-10.5,19.5,12.7,-10.0,5.73,2.36,-25.5,25.0
2012-05-12 01:26:00,0.0,1.8948,0.0011,404.34,0.40,123.3,43.3,138.20,24.24,24.59,36.31,0.04,-272.73,-272.73,-51,553,-923,19.2,12.4,-10.5,19.5,12.7,-9.9,5.73,2.47,-25.5,25.0
2012-05-12 01:27:00,0.0,1.8950,0.0009,404.43,0.45,134.8,34.5,138.20,24.25,24.59,36.30,0.04,-272.73,-272.73,-51,553,-923,19.2,12.3,-10.6,19.5,12.7,-10.0,5.73,2.38,-25.5,25.0
2012-05-12 01:28:00,0.0,1.8951,0.0008,404.47,0.40,134.5,41.2,138.19,24.26,24.59,36.30,0.04,-272.73,-272.73,-51,553,-923,19.3,12.4,-10.5,19.5,12.7,-9.9,5.73,2.32,-25.5,25.0
2012-05-12 01:29:00,0.0,1.8953,0.0010,404.45,0.46,140.1,47.8,138.20,24.26,24.58,36.30,0.04,-272.73,-272.74,-51,553,-923,19.3,12.3,-10.6,19.5,12.6,-10.0,5.73,2.43,-25.4,25.0
2012-05-12 01:30:00,0.0,1.8953,0.0011,404.43,0.38,135.0,39.2,138.19,24.27,24.58,36.30,0.04,-272.73,-272.74,-51,553,-923,19.3,12.2,-10.6,19.5,12.6,-10.0,5.73,2.45,-25.5,25.1
2012-05-12 01:31:00,0.0,1.8956,0.0011,404.41,0.44,141.0,39.1,138.19,24.28,24.58,36.30,0.04,-272.73,-272.73,-51,553,-923,19.3,12.2,-10.6,19.5,12.6,-10.0,5.73,2.32,-25.4,25.1
2012-05-12 01:32:00,0.0,1.8958,0.0010,404.46,0.42,143.1,46.5,138.19,24.29,24.58,36.30,0.04,-272.73,-272.73,-51,553,-924,19.3,12.2,-10.5,19.6,12.6,-10.0,5.73,2.36,-25.5,25.1
2012-05-12 01:33:00,0.0,1.8954,0.0008,404.37,0.42,147.5,52.3,138.20,24.30,24.58,36.30,0.04,-272.74,-272.73,-51,553,-923,19.3,12.3,-10.5,19.6,12.6,-9.9,5.73,2.47,-25.4,25.1
2012-05-12 01:34:00,0.0,1.8959,0.0010,404.44,0.46,147.6,38.9,138.19,24.31,24.58,36.30,0.04,-272.73,-272.73,-51,554,-924,19.4,12.4,-10.4,19.6,12.8,-9.8,5.73,2.37,-25.4,25.1
2012-05-12 01:35:00,0.0,1.8956,0.0009,404.50,0.41,145.5,43.7,138.19,24.32,24.59,36.29,0.04,-272.73,-272.73,-51,553,-923,19.4,12.4,-10.3,19.6,12.8,-9.8,5.73,2.32,-25.4,25.1
2012-05-12 01:36:00,0.0,1.8959,0.0009,404.44,0.38,139.5,48.6,138.19,24.33,24.59,36.30,0.04,-272.73,-272.73,-51,554,-924,19.4,12.4,-10.3,19.6,12.8,-9.8,5.73,2.44,-25.4,25.1
2012-05-12 01:37:00,0.0,1.8957,0.0011,404.49,0.41,151.5,46.4,138.19,24.34,24.58,36.30,0.04,-272.73,-272.73,-51,553,-923,19.4,12.3,-10.4,19.6,12.7,-9.9,5.73,2.44,-25.4,25.1
2012-05-12 01:38:00,0.0,1.8954,0.0007,404.52,0.52,146.6,32.8,138.20,24.34,24.59,36.30,0.04,-272.73,-272.73,-51,554,-924,19.4,12.3,-10.4,19.6,12.7,-9.9,5.73,2.32,-25.4,25.1
2012-05-12 01:39:00,0.0,1.8957,0.0009,404.57,0.42,144.0,41.4,138.19,24.35,24.58,36.30,0.04,-272.73,-272.74,-51,554,-923,19.4,12.4,-10.4,19.6,12.7,-9.8,5.73,2.37,-25.4,25.1
2012-05-12 01:40:00,0.0,1.8957,0.0011,404.43,0.48,139.1,45.8,138.19,24.36,24.59,36.30,0.04,-272.73,-272.74,-51,554,-924,19.4,12.4,-10.3,19.6,12.8,-9.7,5.73,2.47,-25.4,25.1
2012-05-12 01:41:00,0.0,1.8961,0.0011,404.44,0.35,142.1,45.3,138.19,24.37,24.58,36.30,0.04,-272.73,-272.73,-51,554,-924,19.4,12.7,-10.0,19.7,13.0,-9.5,5.73,2.36,-25.4,25.1
2012-05-12 01:42:00,0.0,1.8955,0.0010,404.37,0.40,146.6,54.1,138.19,24.37,24.58,36.31,0.04,-272.73,-272.74,-51,554,-924,19.4,12.7,-10.0,19.7,13.1,-9.4,5.73,2.32,-25.4,25.1
2012-05-12 01:43:00,0.0,1.8951,0.0010,404.46,0.40,131.6,36.7,138.19,24.38,24.59,36.30,0.04,-272.74,-272.73,-51,554,-923,19.4,12.7,-10.1,19.7,13.1,-9.5,5.73,2.44,-25.4,25.1
2012-05-12 01:44:00,0.0,1.8951,0.0011,404.57,0.42,135.8,38.6,138.19,24.39,24.58,36.30,0.04,-272.73,-272.73,-51,554,-924,19.4,12.4,-10.3,19.7,12.8,-9.7,5.73,2.43,-25.4,25.2
2012-05-12 01:45:00,0.0,1.8947,0.0010,404.38,0.41,135.7,42.1,138.19,24.39,24.59,36.30,0.04,-272.73,-272.73,-51,554,-924,19.5,12.3,-10.4,19.7,12.7,-9.8,5.73,2.31,-25.4,25.1
2012-05-12 01:46:00,0.0,1.8950,0.0010,404.42,0.37,141.7,48.7,138.19,24.40,24.59,36.30,0.04,-272.74,-272.74,-51,554,-924,19.5,12.1,-10.6,19.7,12.5,-10.0,5.73,2.38,-25.4,25.2
2012-05-12 01:47:00,0.0,1.8953,0.0011,404.39,0.41,139.4,38.5,138.19,24.40,24.58,36.30,0.04,-272.74,-272.73,-51,554,-924,19.5,12.1,-10.6,19.7,12.4,-10.0,5.73,2.47,-25.4,25.2
2012-05-12 01:48:00,0.0,1.8953,0.0008,404.39,0.43,157.3,43.2,138.19,24.41,24.58,36.30,0.04,-272.73,-272.74,-51,554,-924,19.5,12.2,-10.4,19.7,12.6,-9.9,5.73,2.36,-25.4,25.2
2012-05-12 01:49:00,0.0,1.8954,0.0009,404.47,0.43,151.2,37.9,138.19,24.42,24.58,36.30,0.04,-272.73,-272.73,-51,554,-924,19.5,12.2,-10.5,19.7,12.5,-9.9,5.73,2.32,-25.3,25.2
2012-05-12 01:50:00,0.0,1.8951,0.0009,404.46,0.39,144.4,42.8,138.19,24.42,24.59,36.29,0.04,-272.73,-272.74,-51,554,-924,19.5,12.1,-10.5,19.7,12.5,-10.0,5.73,2.45,-25.3,25.3
2012-05-12 01:51:00,0.0,1.8953,0.0010,404.48,0.48,149.0,44.8,138.19,24.43,24.59,36.30,0.04,-272.73,-272.73,-51,554,-924,19.5,12.2,-10.5,19.7,12.6,-9.9,5.73,2.43,-25.3,25.2
2012-05-12 01:52:00,0.0,1.8953,0.0011,404.59,0.44,151.1,34.2,138.19,24.44,24.59,36.29,0.04,-272.73,-272.73,-51,554,-924,19.5,12.4,-10.2,19.7,12.8,-9.7,5.73,2.31,-25.3,25.2
2012-05-12 01:53:00,0.0,1.8952,0.0009,404.48,0.51,147.7,44.7,138.19,24.45,24.59,36.30,0.04,-272.73,-272.73,-51,554,-924,19.5,12.5,-10.2,19.8,12.8,-9.6,5.73,2.39,-25.3,25.2
2012-05-12 01:54:00,0.0,1.8954,0.0008,404.54,0.43,147.1,36.1,138.19,24.46,24.58,36.29,0.04,-272.73,-272.73,-51,554,-924,19.5,12.3,-10.3,19.8,12.7,-9.7,5.73,2.47,-25.3,25.2
2012-05-12 01:55:00,0.0,1.8952,0.0009,404.57,0.43,143.9,38.9,138.19,24.47,24.59,36.29,0.04,-272.74,-272.73,-51,554,-924,19.6,12.3,-10.3,19.8,12.7,-9.7,5.73,2.35,-25.3,25.3
2012-05-12 01:56:00,0.0,1.8949,0.0008,404.45,0.41,148.3,40.5,138.19,24.47,24.59,36.30,0.04,-272.73,-272.74,-51,554,-924,19.6,12.3,-10.3,19.8,12.7,-9.7,5.73,2.33,-25.3,25.2
2012-05-12 01:57:00,0.0,1.8948,0.0010,404.54,0.40,137.3,42.4,138.19,24.48,24.59,36.29,0.04,-272.74,-272.73,-51,554,-924,19.6,12.0,-10.6,19.8,12.3,-10.1,5.73,2.45,-25.3,25.3
2012-05-12 01:58:00,0.0,1.8950,0.0010,404.39,0.37,136.7,45.0,138.19,24.49,24.58,36.30,0.04,-272.73,-272.73,-51,555,-924,19.6,11.9,-10.7,19.8,12.2,-10.2,5.73,2.42,-25.3,25.2
2012-05-12 01:59:00,0.0,1.8955,0.0010,404.53,0.33,153.3,38.4,138.19,24.49,24.58,36.30,0.04,-272.73,-272.73,-51,555,-924,19.6,11.8,-10.8,19.8,12.2,-10.3,5.73,2.31,-25.3,25.2
2012-05-12 02:00:00,0.0,1.8950,0.0010,404.47,0.48,154.9,35.5,138.19,24.50,24.59,36.29,0.04,-272.73,-272.73,-51,555,-924,19.6,11.9,-10.7,19.8,12.2,-10.2,5.73,2.38,-25.3,25.3
2012-05-12 02:01:00,0.0,1.8955,0.0011,404.39,0.41,162.4,42.9,138.19,24.51,24.58,36.30,0.04,-272.73,-272.73,-52,554,-924,19.6,12.2,-10.4,19.8,12.6,-9.8,5.73,2.47,-25.3,25.3
2012-05-12 02:02:00,0.0,1.8956,0.0009,404.44,0.40,149.4,41.3,138.19,24.52,24.59,36.29,0.04,-272.73,-272.73,-51,555,-924,19.7,12.0,-10.5,19.9,12.4,-10.0,5.73,2.36,-25.3,25.3
2012-05-12 02:03:00,0.0,1.8960,0.0008,404.52,0.39,152.3,40.2,138.19,24.53,24.58,36.29,0.04,-272.73,-272.74,-51,555,-924,19.6,12.1,-10.5,19.9,12.5,-9.9,5.73,2.32,-25.3,25.4
2012-05-12 02:04:00,0.0,1.8961,0.0012,404.47,0.44,154.6,42.6,138.19,24.54,24.58,36.29,0.04,-272.73,-272.73,-52,554,-924,19.7,12.0,-10.6,19.9,12.3,-10.0,5.73,2.45,-25.3,25.4
2012-05-12 02:05:00,0.0,1.8953,0.0010,404.29,0.45,154.5,41.2,138.19,24.55,24.59,36.30,0.04,-272.73,-272.73,-51,555,-924,19.7,11.9,-10.6,19.9,12.3,-10.1,5.73,2.43,-25.3,25.3
2012-05-12 02:06:00,0.0,1.8955,0.0009,404.41,0.40,144.9,36.4,138.19,24.56,24.58,36.29,0.04,-272.73,-272.73,-51,555,-924,19.7,11.9,-10.6,19.9,12.3,-10.0,5.73,2.31,-25.3,25.4
2012-05-12 02:07:00,0.0,1.8959,0.0010,404.46,0.44,151.6,47.9,138.19,24.56,24.58,36.30,0.04,-272.73,-272.74,-52,555,-924,19.7,11.8,-10.7,19.9,12.2,-10.2,5.73,2.37,-25.3,25.4
2012-05-12 02:08:00,0.0,1.8958,0.0008,404.36,0.42,156.7,38.1,138.19,24.57,24.58,36.30,0.04,-272.73,-272.73,-51,555,-924,19.7,11.8,-10.7,19.9,12.2,-10.1,5.73,2.46,-25.2,25.4
2012-05-12 02:09:00,0.0,1.8953,0.0010,404.53,0.42,151.9,40.0,138.19,24.58,24.59,36.29,0.04,-272.73,-272.73,-51,555,-924,19.7,12.2,-10.3,19.9,12.6,-9.7,5.73,2.36,-25.2,25.4
2012-05-12 02:10:00,0.0,1.8956,0.0010,404.50,0.36,144.8,39.9,138.19,24.59,24.59,36.29,0.04,-272.73,-272.73,-52,555,-924,19.7,12.3,-10.2,19.9,12.7,-9.6,5.73,2.32,-25.2,25.5
2012-05-12 02:11:00,0.0,1.8953,0.0009,404.46,0.46,155.7,40.1,138.19,24.60,24.59,36.29,0.04,-272.73,-272.74,-51,555,-924,19.7,12.2,-10.3,19.9,12.5,-9.8,5.73,2.44,-25.2,25.5
2012-05-12 02:12:00,0.0,1.8955,0.0009,404.47,0.46,149.7,42.5,138.19,24.61,24.59,36.29,0.04,-272.73,-272.73,-52,555,-924,19.8,12.2,-10.3,20.0,12.6,-9.7,5.73,2.44,-25.2,25.5
2012-05-12 02:13:00,0.0,1.8954,0.0010,404.42,0.35,162.3,46.1,138.19,24.62,24.59,36.30,0.04,-272.74,-272.73,-52,555,-924,19.8,12.4,-10.0,20.0,12.8,-9.5,5.73,2.32,-25.2,25.5
2012-05-12 02:14:00,0.0,1.8951,0.0009,404.45,0.37,160.7,39.9,138.19,24.63,24.59,36.30,0.04,-272.73,-272.73,-51,555,-924,19.8,12.1,-10.3,20.0,12.5,-9.7,5.73,2.36,-25.2,25.4
2012-05-12 02:15:00,0.0,1.8950,0.0010,404.38,0.38,151.6,37.6,138.19,24.63,24.59,36.30,0.04,-272.73,-272.73,-52,555,-924,19.8,11.9,-10.6,20.0,12.3,-10.0,5.73,2.46,-25.2,25.4
2012-05-12 02:16:00,0.0,1.8952,0.0010,404.40,0.41,159.7,42.2,138.19,24.64,24.59,36.29,0.04,-272.73,-272.73,-52,555,-924,19.8,11.6,-10.8,20.0,12.0,-10.3,5.73,2.38,-25.2,25.5